COSMOS 2336

导读 | 豆包AI

**COSMOS 2336卫星**是独联体(CIS)于1996年12月20日发射的“宇宙”系列卫星,该系列是苏/俄长期开展的多用途卫星计划,覆盖科学实验、通信与军事侦察等领域。作为冷战后独联体早期航天活动的一部分,延续了苏联宇宙卫星系列的技术脉络,服务于空间技术验证与对地观测相关任务,是俄航天继承与发展进程中的典型航天器。

基本信息
目录编号:
24677
目录名称:
COSMOS 2336
国际标识:
1996-071A
轨道中心:
EARTH
卫星名称:
COSMOS 2336
卫星全名:
--
卫星状态:
在轨 (已飞行10697 天)
发射日期:
1996-12-20 UTC
国别 :
俄罗斯(独联体) (CIS)
星等 :
--
轨道信息
数据来源 国际轨道数据
星历时间: 2026-04-04T02:07:24+0800
9小时前
查看轨道信息
半长轴: 7371.686km
偏心率: 0.0024873
轨道倾角: 82.937°
近地点辐角 124.177°
升交点赤经 261.541°
平近点角 247.038°
近地点: 975.213km
远地点: 1011.885km
周期: 104.981分钟
每日圈数: 13.716792
详细信息
使用方式:
暂无
2D轨道图
3D轨道图
轨道高度分析图
轨道倾角分析图
轨道综合分析图
查看轨道综合分析图